Change the Weather History Date:

Tuesday, June 12, 2012

  Actual Average Record
Temperature  
Mean Temperature 84 °F -  
Max Temperature 87 °F 87 °F 91 °F (2006)
Min Temperature 80 °F 81 °F 78 °F (2000)
Cooling Degree Days 18    
Growing Degree Days 34 (Base 50)    
Moisture  
Dew Point 76 °F    
Average Humidity 80    
Maximum Humidity 89    
Minimum Humidity 69    
Precipitation  
Precipitation 0.00 in - - ()
Sea Level Pressure  
Sea Level Pressure 29.88 in    
Wind  
Wind Speed 16 mph ()    
Max Wind Speed 22 mph    
Max Gust Speed -    
Visibility 7.1 miles    
Events      
Averages and records for this station are not official NWS values.
T = Trace of Precipitation, MM = Missing Value Source: Averaged Metar Reports

Daily Weather History Graph

Daily Weather History Graph

Search for Another Location

Airport or City:

Trip Planner

Search our weather history database for the weather conditions in past years. The results will help you decide how hot, cold, wet, or windy it might be!

Date:

Astronomy

Jun. 12, 2012 Rise Set
Actual Time 6:08 AM AST 6:58 PM AST
Civil Twilight 5:44 AM AST 7:21 PM AST
Nautical Twilight 5:17 AM AST 7:48 PM AST
Astronomical Twilight 4:49 AM AST 8:16 PM AST
Moon 12:59 AM AST (6/12) 1:30 PM AST (6/12)
Length of Visible Light 13h 36m
Length of Day
12h 49m
Last Quarter, 38% of the Moon is Illuminated
Jun 12
Last Quarter
Jun 19
New
Jun 26
First Quarter
Jul 3
Full
Jul 10
Last Quarter

Hourly Weather History & Observations

Time (AST) Temp. Heat Index Dew Point Humidity Pressure Visibility Wind Dir Wind Speed Gust Speed Precip Events Conditions
12:00 AM 80.6 °F 87.1 °F 77.0 °F 89% 29.89 in 6.2 mi North - - N/A   Partly Cloudy
1:00 AM 80.6 °F 87.1 °F 77.0 °F 89% 29.89 in 6.2 mi North - - N/A   Partly Cloudy
2:00 AM 81 °F - 76 °F 82%  in 12 mi Calm Calm - -   Clear
2:00 AM 80.6 °F 87.1 °F 77.0 °F 89% 29.86 in - North - - N/A   Unknown
3:00 AM 80.6 °F 87.1 °F 77.0 °F 89% 29.86 in - North - - N/A   Unknown
4:00 AM 80.6 °F 86.2 °F 75.2 °F 84% 29.86 in - North - - N/A   Unknown
5:00 AM 81 °F - 76 °F 79%  in - Calm Calm - -   Clear
5:00 AM 80.6 °F 86.2 °F 75.2 °F 84% 29.86 in - North - - N/A   Unknown
6:00 AM 80.6 °F 86.2 °F 75.2 °F 84% 29.86 in - North - - N/A   Unknown
7:00 AM 80.6 °F 86.2 °F 75.2 °F 84% 29.89 in - North - - N/A   Unknown
8:00 AM 83 °F - 77 °F 76% 29.91 in 9 mi East 17.3 mph - -   Haze
8:00 AM 82.4 °F 90.9 °F 77.0 °F 84% 29.89 in 6.2 mi East 17.3 mph - N/A   Scattered Clouds
9:00 AM 84.2 °F 94.1 °F 77.0 °F 79% 29.89 in 6.2 mi East 19.6 mph - N/A   Partly Cloudy
10:00 AM 84.2 °F 94.1 °F 77.0 °F 79% 29.92 in 6.2 mi East 20.7 mph - N/A   Partly Cloudy
11:00 AM 86 °F - 77 °F 69% 29.94 in 9 mi East 19.6 mph - -   Haze
11:00 AM 86.0 °F 96.9 °F 77.0 °F 74% 29.92 in 6.2 mi East 19.6 mph - N/A   Scattered Clouds
12:00 PM 86.0 °F 96.9 °F 77.0 °F 74% 29.89 in 6.2 mi East 17.3 mph - N/A   Mostly Cloudy
1:00 PM 86.0 °F 96.9 °F 77.0 °F 74% 29.89 in 6.2 mi East 19.6 mph - N/A   Scattered Clouds
2:00 PM 85 °F - 77 °F 70% 29.89 in 9 mi East 19.6 mph - -   Haze
2:00 PM 86.0 °F 96.9 °F 77.0 °F 74% 29.86 in 6.2 mi East 19.6 mph - N/A   Mostly Cloudy
3:00 PM 86.0 °F 96.9 °F 77.0 °F 74% 29.86 in 6.2 mi East 21.9 mph - N/A   Mostly Cloudy
4:00 PM 84.2 °F 94.1 °F 77.0 °F 79% 29.83 in 6.2 mi East 20.7 mph - N/A   Scattered Clouds
5:00 PM 84 °F - 76 °F 71% 29.85 in 9 mi East 18.4 mph - -   Haze
5:00 PM 84.2 °F 92.3 °F 75.2 °F 74% 29.83 in 6.2 mi East 18.4 mph - N/A   Scattered Clouds
6:00 PM 82.4 °F 89.5 °F 75.2 °F 79% 29.83 in 6.2 mi East 17.3 mph - N/A   Scattered Clouds
7:00 PM 82.4 °F 90.9 °F 77.0 °F 84% 29.83 in 6.2 mi East 16.1 mph - N/A   Scattered Clouds
8:00 PM 81 °F - 76 °F 80% 29.88 in 9 mi East 16.1 mph - -   Haze
8:00 PM 80.6 °F 86.2 °F 75.2 °F 84% 29.86 in 6.2 mi East 16.1 mph - N/A   Scattered Clouds
9:00 PM 80.6 °F 86.2 °F 75.2 °F 84% 29.89 in - North - - N/A   Unknown
10:00 PM 80.6 °F 87.1 °F 77.0 °F 89% 29.89 in - North - - N/A   Unknown
11:00 PM 80.6 °F 87.1 °F 77.0 °F 89% 29.89 in - North - - N/A   Unknown